Weather History for Fort Simpson, NT

Change the Weather History Date:

Sunday, December 9, 2012

  Actual Average Record
Temperature  
Mean Temperature -26 °F -  
Max Temperature -15 °F - - ()
Min Temperature -37 °F - - ()
Degree Days  
Heating Degree Days 91    
Moisture  
Dew Point -32 °F    
Average Humidity 72    
Maximum Humidity 79    
Minimum Humidity 49    
Precipitation  
Precipitation 0.64 in - - ()
Sea Level Pressure  
Sea Level Pressure 30.14 in    
Wind  
Wind Speed 1 mph ()    
Max Wind Speed 5 mph    
Max Gust Speed -    
T = Trace of Precipitation, MM = Missing Value Source: Averaged Metar Reports

Daily Weather History Graph

Daily Weather History Graph

Search for Another Location

Airport:

Trip Planner

Search our weather history database for the weather conditions in past years. The results will help you decide how hot, cold, wet, or windy it might be!

Date:

Astronomy

Dec. 09, 2012 Rise Set
Actual Time 10:13 AM MST 3:41 PM MST
Civil Twilight 9:10 AM MST 4:44 PM MST
Nautical Twilight 8:09 AM MST 5:45 PM MST
Astronomical Twilight 7:15 AM MST 6:39 PM MST
Moon 4:49 AM MST (12/9) 1:48 PM MST (12/9)
Length of Visible Light 7h 34m
Length of Day
5h 28m
Waning Crescent, 18% of the Moon is Illuminated
Dec 9
Waning Crescent
Dec 13
New
Dec 19
First Quarter
Dec 28
Full
Jan 4
Last Quarter

Hourly Weather History & Observations

Time (MST) Temp. Windchill Dew Point Humidity Pressure Visibility Wind Dir Wind Speed Gust Speed Precip Events Conditions
12:00 AM -33.5 °F - -40.2 °F 70% 30.43 in - Calm Calm - N/A   Unknown
1:00 AM -34.1 °F - -40.7 °F 70% 30.41 in - Calm Calm - N/A   Unknown
2:00 AM -35.0 °F - -41.6 °F 70% 30.39 in - Calm Calm - N/A   Unknown
3:00 AM -35.7 °F - -42.3 °F 70% 30.35 in - ESE 1.2 mph - N/A   Unknown
4:00 AM -35.9 °F - -42.7 °F 69% 30.33 in - Calm Calm - N/A   Unknown
5:00 AM -36 °F - -43 °F 49% 30.30 in - Calm Calm - -  
5:00 AM -36.4 °F - -43.2 °F 69% 30.30 in - Calm Calm - N/A   Unknown
6:00 AM -36.0 °F - -42.9 °F 69% 30.27 in - Calm Calm - N/A   Unknown
7:00 AM -30.6 °F - -36.9 °F 72% 30.21 in - East 1.2 mph - N/A   Unknown
8:00 AM -30.5 °F - -36.8 °F 72% 30.19 in - SE 2.3 mph - N/A   Unknown
9:00 AM -29.0 °F -41.0 °F -35.1 °F 72% 30.14 in - East 3.5 mph - N/A   Unknown
10:00 AM -28.5 °F - -34.6 °F 73% 30.12 in - SE 2.3 mph - N/A   Unknown
11:00 AM -27 °F - -33 °F 60% 30.09 in - Calm Calm - -  
11:00 AM -26.7 °F - -32.6 °F 73% 30.09 in - Calm Calm - N/A   Unknown
12:00 PM -24.3 °F - -30.1 °F 74% 30.07 in - SE 2.3 mph - N/A   Unknown
1:00 PM -21.5 °F - -26.9 °F 76% 30.04 in - East 2.3 mph - N/A   Unknown
2:00 PM -19.7 °F - -24.9 °F 77% 30.00 in - East 2.3 mph - N/A   Unknown
3:00 PM -18.6 °F -31.6 °F -23.8 °F 77% 29.99 in - ESE 4.6 mph - N/A   Unknown
4:00 PM -17.7 °F -28.0 °F -22.7 °F 78% 29.97 in - ESE 3.5 mph - N/A   Unknown
5:00 PM -17 °F - -22 °F 66% 29.98 in - East 2.3 mph - -  
5:00 PM -17.0 °F - -22.0 °F 78% 29.98 in - East 2.3 mph - N/A   Unknown
6:00 PM -16.4 °F - -21.3 °F 79% 29.99 in - East 1.2 mph - N/A   Unknown
7:00 PM -16.2 °F - -21.1 °F 79% 29.98 in - East 2.3 mph - N/A   Unknown
8:00 PM -15.5 °F -25.6 °F -20.6 °F 78% 30.00 in - NE 3.5 mph - N/A   Unknown
10:00 PM -20.7 °F -31.5 °F -26.1 °F 76% 30.02 in - NNW 3.5 mph - N/A   Unknown
11:00 PM -20 °F - -25 °F 67% 30.04 in - NNW 3.5 mph - -  
11:00 PM -19.7 °F -30.3 °F -24.7 °F 78% 30.04 in - NNW 3.5 mph - N/A   Unknown